Regional Weather Roundup
Issued by NWS

Home | Current Version | Previous Version | Text Only | Print | Product List | Glossary On
Versions: 1 2 3 4 5 6 7 8 9 10 11 12 13 14 15 16 17 18 19 20 21 22 23 24 25 26 27 28 29 30 31 32 33 34 35 36 37 38 39 40 41 42 43 44 45 46 47 48 49 50
000
ASUS43 KMKX 210800
RWRWI

WISCONSIN REGIONAL WEATHER ROUNDUP
NATIONAL WEATHER SERVICE MILWAUKEE/SULLIVAN WI
200 AM CST TUE FEB 21 2017

NOTE: "FAIR" INDICATES FEW OR NO CLOUDS BELOW 12,000 FEET WITH NO
SIGNIFICANT WEATHER AND/OR OBSTRUCTIONS TO VISIBILITY.

WIZ001-002-006>008-014>016-023>028-210900-
NORTHWEST WISCONSIN

CITY           SKY/WX    TMP DP  RH WIND       PRES   REMARKS
SUPERIOR ARPT  CLOUDY    39  36  91 W16G22    29.74R WCI  30
ASHLAND        CLOUDY    43  40  89 W16G25    29.72R
HAYWARD        CLOUDY    42  40  92 W9G17     29.77R
SIREN          CLOUDY    40  37  92 W10       29.81R WCI  33
CUMBERLAND     CLOUDY    37  36  93 W17       29.80R WCI  28
RICE LAKE      CLOUDY    41  39  95 W15G22    29.81R
CHETEK         CLOUDY    42  40  95 W8        29.80R
LADYSMITH      CLOUDY    46  45  98 W12       29.77R
EAU CLAIRE     NOT AVBL
MENOMONIE      CLOUDY    42  40  91 W9        29.84R
NEW RICHMOND   CLOUDY    39  38  97 W6        29.84R FOG     WCI  35
OSCEOLA        NOT AVBL
$$

WIZ003>005-009-010-017-018-210900-
NORTH CENTRAL WISCONSIN

CITY           SKY/WX    TMP DP  RH WIND       PRES   REMARKS
MANITOWISH WTR DRIZZLE   47  47 100 SW14G20   29.66R
ARBOR VITAE    DRIZZLE   50  49  97 SW10G16   29.67R
WOODRUFF       DRIZZLE   50  49  97 SW10G16   29.67R
RHINELANDER    LGT RAIN  49  49 100 SW14G25   29.70R FOG
EAGLE RIVER    DRIZZLE   47  47 100 SW9       29.66R
LAND O LAKES   LGT RAIN  48  48 100 SW7       29.67R
PHILLIPS       CLOUDY    47  46  97 W9        29.73R
TOMAHAWK       LGT RAIN  48  48  97 SW5       29.72R
MEDFORD        CLOUDY    47  46  97 SW13G21   29.75R FOG
MERRILL        NOT AVBL
$$

WIZ029-030-035-036-043>047-210900-
CENTRAL WISCONSIN

CITY           SKY/WX    TMP DP  RH WIND       PRES   REMARKS
WAUSAU         CLOUDY    51  50  96 SW15G23   29.74R
MOSINEE        CLOUDY    50  50 100 SW15      29.77R
MARSHFIELD     CLOUDY    49  46  90 W15       29.77R
STEVENS POINT  CLOUDY    51  51 100 SW12G18   29.76R FOG
WAUPACA        CLOUDY    55  55  97 S8        29.78S FOG
WAUTOMA        CLOUDY    54  53  97 S7        29.79S
WISC RAPIDS    CLOUDY    53  50  89 W14G26    29.79R
CAMP DOUGLAS   NOT AVBL
$$

WIZ011>013-019>022-031-037>040-048>050-210900-
NORTHEAST WISCONSIN

CITY           SKY/WX    TMP DP  RH WIND       PRES   REMARKS
ANTIGO         DRZL/FOG  46  46 100 SW13      29.72R VSB 1/4
SHAWANO        CLOUDY    53  51  95 S5        29.75F FOG
OCONTO         CLOUDY    48  47  97 S7        29.75F
STURGEON BAY   LGT RAIN  43  41  93 S15       29.77F
GREEN BAY      CLOUDY    52  52 100 S10       29.77F FOG
MANITOWOC      NOT AVBL
APPLETON       LGT RAIN  50  50 100 S9        29.77F
CLINTONVILLE   CLOUDY    52  52 100 S10       29.75F FOG
OSHKOSH        CLOUDY    53  51  93 S15       29.78F
$$

WIZ032>034-041-042-053>061-210900-
SOUTHWEST WISCONSIN

CITY           SKY/WX    TMP DP  RH WIND       PRES   REMARKS
LA CROSSE      CLOUDY    47  42  83 NW7       29.87R
SPARTA         CLOUDY    49  46  91 W10G22    29.85R
VIROQUA        CLOUDY    47  46  93 W10       29.87R
BOSCOBEL       CLOUDY    52  47  83 W7        29.88R
PRAIRIE DU CHI CLOUDY    47  46  96 NW7       29.89R
PLATTEVILLE    CLOUDY    53  53 100 SW8       29.87R VSB 1/2
$$

WIZ056-057-062-063-064-067-068-210900-
SOUTH CENTRAL WISCONSIN

CITY           SKY/WX    TMP DP  RH WIND       PRES   REMARKS
REEDSBURG      CLOUDY    55  55 100 SW9       29.81R
BARABOO/DELLS  CLOUDY    55  53  92 SW13      29.80S
LONE ROCK      CLOUDY    55  54  94 W7        29.85R
MINERAL POINT  CLOUDY    55  55 100 SW12      29.85S FOG
MADISON        LGT RAIN  55  54  96 S9        29.82F
MIDDLETON        N/A     57  57 100 SW10      29.84F
WATERTOWN      DRIZZLE   53  53 100 S8        29.85S
MONROE         FOG       54  54 100 S9        29.87S VSB 1/4
JANESVILLE     DRIZZLE   55  55 100 S6        29.86F
$$

WIZ051-052-058>065-066-070>072-210900-
SOUTHEAST WISCONSIN

CITY           SKY/WX    TMP DP  RH WIND       PRES   REMARKS
MILWAUKEE      LGT RAIN  56  50  80 SW13      29.89R
WAUKESHA       LGT RAIN  52  50  93 SW9       29.88S
MILWAUKEE/TIMM RAIN      54  48  82 SW7       29.87S
RACINE         LGT RAIN  46  40  79 SW5       29.90R
KENOSHA        CLOUDY    57  48  72 SW9       29.90R
FOND DU LAC    LGT RAIN  54  50  86 S13       29.81S
SHEBOYGAN      LGT RAIN  44  41  89 S8        29.83F
WEST BEND      LGT RAIN  52  52 100 S12       29.84F
JUNEAU         DRIZZLE   53  52  97 S12       29.85R
$$

LSZ147-162-210900-
LAKE SUPERIOR

STATION/POSITION TIME  TEMP    WIND        PRES    WAVE
                       AIR SEA DIR/SP/G            HT/PER
                 (UTC) (F)     (DEG/KT/KT) (MB)    (FT/S)
DEVILS ISLAND    0700   38     240/ 26/ 29 1003.2R
PORT WING        0740   38     260/ 13/ 21 1006.4R
SAXON HARBOR     0740   48     230/ 10/ 15 1005.1R
$$

LMZ867-665-643>646-210900-
LAKE MICHIGAN

STATION/POSITION TIME  TEMP    WIND        PRES    WAVE
                       AIR SEA DIR/SP/G            HT/PER
                 (UTC) (F)     (DEG/KT/KT) (MB)    (FT/S)
CHAMBERS ISLAND  0740   45     160/  9/ 14 1007.1F
NORTHPORT PIER   0740   44     170/ 11/ 22 1008.1F
SISTER BAY       0735   43     180/ 22/ 30   N/A
KEWAUNEE LAKESHO 0730   39     180/ 16/ 18 1009.1F
SHEBOYGAN LAKESH 0700   41     170/ 19/ 20 1010.9F
PORT WASHINGTON  0740   41     180/  9/ 10 1012.2F
MILWAUKEE LAKESH 0730   41     160/  4/  4   N/A
KENOSHA   LAKESH 0700   40     180/ 12/ 14 1011.9
$$

TC  - TEMPERATURE IN CELSIUS
VSB - VISIBILITY IN STATUTE MILES
WCI - WIND CHILL INDEX
HX  - HEAT INDEX




USA.gov is the U.S. government's official web portal to all federal, state and local government web resources and services.